| time (UTC) | temp C | wind direction | speed KPH | gust KPH | rain 1hr cm | rain 24hr cm | rain mn cm | humidity % | barometer mb |
| 20260510191554 | 19 | 155 | 0.0 | 12.9 | 0.00 | 0.00 | 0.00 | 56 | 1017.1 |
| 20260510190050 | 20 | 158 | 0.0 | 6.4 | 0.00 | 0.00 | 0.00 | 59 | 1017.0 |
| 20260510184519 | 20 | 158 | 0.0 | 0.0 | 0.00 | 0.00 | 0.00 | 58 | 1017.0 |
| 20260510183018 | 19 | 158 | 0.0 | 3.2 | 0.00 | 0.00 | 0.00 | 61 | 1017.1 |
| 20260510181548 | 19 | 158 | 0.0 | 4.8 | 0.00 | 0.00 | 0.00 | 62 | 1016.9 |
| 20260510180045 | 19 | 158 | 0.0 | 9.7 | 0.00 | 0.00 | 0.00 | 62 | 1016.9 |
| 20260510174513 | 19 | 158 | 0.0 | 1.6 | 0.00 | 0.00 | 0.00 | 64 | 1016.8 |
| 20260510173012 | 19 | 158 | 0.0 | 8.0 | 0.00 | 0.00 | 0.00 | 65 | 1016.8 |
| 20260510171539 | 18 | 158 | 0.0 | 3.2 | 0.00 | 0.00 | 0.00 | 66 | 1016.7 |
| 20260510170042 | 18 | 158 | 3.2 | 16.1 | 0.00 | 0.00 | 0.00 | 68 | 1016.6 |
| 20260510164513 | 17 | 160 | 0.0 | 17.7 | 0.00 | 0.00 | 0.00 | 70 | 1016.2 |
| 20260510163005 | 17 | 159 | 1.6 | 17.7 | 0.00 | 0.00 | 0.00 | 72 | 1016.1 |
| 20260510161532 | 17 | 160 | 0.0 | 9.7 | 0.00 | 0.00 | 0.00 | 72 | 1016.0 |
| 20260510160030 | 17 | 160 | 0.0 | 6.4 | 0.00 | 0.00 | 0.00 | 72 | 1015.6 |
| 20260510154600 | 17 | 160 | 0.0 | 6.4 | 0.00 | 0.00 | 0.00 | 73 | 1015.2 |
| 20260510153059 | 17 | 160 | 0.0 | 6.4 | 0.00 | 0.00 | 0.00 | 74 | 1014.9 |
| 20260510151528 | 17 | 160 | 0.0 | 6.4 | 0.00 | 0.00 | 0.00 | 74 | 1014.8 |
| 20260510150028 | 17 | 160 | 0.0 | 12.9 | 0.00 | 0.00 | 0.00 | 75 | 1015.0 |
| 20260510144608 | 17 | 159 | 0.0 | 14.5 | 0.00 | 0.00 | 0.00 | 76 | 1015.3 |
| 20260510143103 | 17 | 159 | 0.0 | 3.2 | 0.00 | 0.00 | 0.00 | 76 | 1015.3 |
| 20260510141554 | 17 | 159 | 0.0 | 11.3 | 0.00 | 0.00 | 0.00 | 75 | 1015.5 |
| 20260510140053 | 17 | 159 | 0.0 | 11.3 | 0.00 | 0.00 | 0.00 | 73 | 1015.2 |
| 20260510134552 | 17 | 159 | 0.0 | 11.3 | 0.00 | 0.00 | 0.00 | 71 | 1015.2 |
| 20260510133048 | 18 | 159 | 0.0 | 1.6 | 0.00 | 0.00 | 0.00 | 76 | 1014.7 |
| 20260510131532 | 18 | 158 | 0.0 | 0.0 | 0.00 | 0.00 | 0.00 | 76 | 1014.3 |
| 20260510130014 | 18 | 159 | 0.0 | 0.0 | 0.00 | 0.00 | 0.00 | 76 | 1014.1 |
| 20260510124541 | 17 | 158 | 0.0 | 0.0 | 0.00 | 0.00 | 0.00 | 78 | 1013.9 |
| 20260510123038 | 16 | 159 | 0.0 | 0.0 | 0.00 | 0.00 | 0.00 | 81 | 1013.6 |
| 20260510121503 | 16 | 159 | 0.0 | 0.0 | 0.00 | 0.00 | 0.00 | 80 | 1013.4 |
| 20260510120100 | 15 | 159 | 0.0 | 0.0 | 0.00 | 0.00 | 0.00 | 81 | 1013.1 |
| 20260510114526 | -17 | 0.0 | 0.0 | 0.00 | 0.00 | 0.00 | 1013.1 | ||
| 20260510113022 | -17 | 0.0 | 0.0 | 0.00 | 0.00 | 0.00 | 1013.0 | ||
| 20260510111548 | -17 | 0.0 | 0.0 | 0.00 | 0.00 | 0.00 | 1012.9 | ||
| 20260510110043 | -17 | 0.0 | 0.0 | 0.00 | 0.00 | 0.00 | 1012.8 | ||
| 20260510104508 | -17 | 0.0 | 0.0 | 0.00 | 0.00 | 0.00 | 1012.6 | ||
| 20260510103008 | 14 | 159 | 0.0 | 0.0 | 0.00 | 0.00 | 0.00 | 80 | 1012.7 |
| 20260510101537 | 15 | 159 | 0.0 | 0.0 | 0.00 | 0.00 | 0.00 | 77 | 1012.6 |
| 20260510100036 | 15 | 159 | 0.0 | 0.0 | 0.00 | 0.00 | 0.00 | 75 | 1012.5 |
| 20260510094506 | 16 | 159 | 0.0 | 0.0 | 0.00 | 0.00 | 0.00 | 74 | 1012.2 |
| 20260510093001 | 16 | 159 | 0.0 | 0.0 | 0.00 | 0.00 | 0.00 | 72 | 1011.9 |
| 20260510091532 | 15 | 159 | 0.0 | 0.0 | 0.00 | 0.00 | 0.00 | 73 | 1011.7 |
| 20260510090031 | 15 | 159 | 0.0 | 0.0 | 0.00 | 0.00 | 0.00 | 75 | 1011.7 |
| 20260510084601 | 15 | 159 | 0.0 | 0.0 | 0.00 | 0.00 | 0.00 | 77 | 1011.6 |
| 20260510083059 | 15 | 159 | 0.0 | 0.0 | 0.00 | 0.00 | 0.00 | 73 | 1011.4 |
| 20260510081527 | 16 | 159 | 0.0 | 0.0 | 0.00 | 0.00 | 0.00 | 70 | 1011.3 |
| 20260510080032 | 16 | 159 | 0.0 | 4.8 | 0.00 | 0.00 | 0.00 | 67 | 1010.5 |
| 20260510074557 | 16 | 159 | 0.0 | 0.0 | 0.00 | 0.00 | 0.00 | 66 | 1010.7 |
| 20260510073114 | 16 | 159 | 0.0 | 0.0 | 0.00 | 0.00 | 0.00 | 66 | 1011.0 |
| 20260510071526 | 15 | 159 | 0.0 | 0.0 | 0.00 | 0.00 | 0.00 | 71 | 1011.1 |
| 20260510070025 | 15 | 159 | 0.0 | 0.0 | 0.00 | 0.00 | 0.00 | 73 | 1011.0 |
| 20260510064634 | 15 | 158 | 0.0 | 1.6 | 0.00 | 0.00 | 0.00 | 75 | 1011.2 |
| 20260510063054 | 14 | 159 | 0.0 | 0.0 | 0.00 | 0.00 | 0.00 | 78 | 1011.5 |
| 20260510061524 | 14 | 158 | 0.0 | 0.0 | 0.00 | 0.00 | 0.00 | 78 | 1011.5 |
| 20260510060024 | 14 | 159 | 0.0 | 0.0 | 0.00 | 0.00 | 0.00 | 78 | 1011.5 |
| 20260510054625 | 14 | 159 | 0.0 | 0.0 | 0.00 | 0.00 | 0.00 | 79 | 1011.5 |
| 20260510053054 | 13 | 159 | 0.0 | 0.0 | 0.00 | 0.00 | 0.00 | 79 | 1011.6 |
| 20260510051554 | 14 | 159 | 0.0 | 0.0 | 0.00 | 0.00 | 0.00 | 78 | 1011.4 |
| 20260510050020 | 15 | 159 | 0.0 | 0.0 | 0.00 | 0.00 | 0.00 | 75 | 1011.3 |
| 20260510044518 | 15 | 159 | 0.0 | 0.0 | 0.00 | 0.00 | 0.00 | 76 | 1011.3 |
| 20260510043048 | 15 | 159 | 0.0 | 0.0 | 0.00 | 0.00 | 0.00 | 75 | 1011.3 |
| 20260510041549 | 15 | 159 | 0.0 | 0.0 | 0.00 | 0.00 | 0.00 | 72 | 1011.1 |
| 20260510040018 | 15 | 159 | 0.0 | 0.0 | 0.00 | 0.00 | 0.00 | 72 | 1011.3 |
| 20260510034515 | 16 | 158 | 0.0 | 0.0 | 0.00 | 0.00 | 0.00 | 70 | 1010.9 |
| 20260510033048 | 16 | 159 | 0.0 | 0.0 | 0.00 | 0.00 | 0.00 | 64 | 1010.5 |
| 20260510031541 | 17 | 159 | 0.0 | 0.0 | 0.00 | 0.00 | 0.00 | 62 | 1010.4 |
| 20260510030010 | 17 | 159 | 0.0 | 0.0 | 0.00 | 0.00 | 0.00 | 63 | 1010.3 |
| 20260510024509 | 18 | 159 | 0.0 | 0.0 | 0.00 | 0.00 | 0.00 | 62 | 1010.2 |
| 20260510023037 | 18 | 158 | 0.0 | 0.0 | 0.00 | 0.00 | 0.00 | 57 | 1009.7 |
| 20260510021536 | 18 | 159 | 0.0 | 0.0 | 0.00 | 0.00 | 0.00 | 58 | 1009.4 |
| 20260510020007 | 19 | 159 | 0.0 | 0.0 | 0.00 | 0.00 | 0.00 | 55 | 1009.0 |
| 20260510014506 | 20 | 159 | 0.0 | 0.0 | 0.00 | 0.00 | 0.00 | 54 | 1008.8 |
| 20260510013036 | 20 | 158 | 0.0 | 4.8 | 0.00 | 0.00 | 0.00 | 53 | 1008.6 |
| 20260510011537 | 22 | 159 | 0.0 | 0.0 | 0.00 | 0.00 | 0.00 | 48 | 1008.3 |
| 20260510010005 | 23 | 158 | 0.0 | 0.0 | 0.00 | 0.00 | 0.00 | 39 | 1008.2 |
| 20260510004505 | 23 | 159 | 0.0 | 0.0 | 0.00 | 0.00 | 0.00 | 36 | 1008.0 |
| 20260510003036 | 25 | 158 | 0.0 | 0.0 | 0.00 | 0.00 | 0.00 | 34 | 1008.0 |
| 20260510001533 | 26 | 159 | 0.0 | 0.0 | 0.00 | 0.00 | 0.00 | 32 | 1008.1 |
| 20260510000003 | 25 | 158 | 0.0 | 0.0 | 0.00 | 0.00 | 0.00 | 32 | 1008.1 |
| 20260509234504 | 26 | 159 | 0.0 | 0.0 | 0.00 | 0.00 | 0.00 | 38 | 1008.1 |
| 20260509233034 | 25 | 158 | 0.0 | 0.0 | 0.00 | 0.00 | 0.00 | 36 | 1008.2 |
| 20260509231534 | 26 | 158 | 0.0 | 0.0 | 0.00 | 0.00 | 0.00 | 31 | 1008.1 |
| 20260509230109 | 26 | 158 | 0.0 | 0.0 | 0.00 | 0.00 | 0.00 | 33 | 1008.3 |
| 20260509224600 | 26 | 158 | 0.0 | 0.0 | 0.00 | 0.00 | 0.00 | 31 | 1008.3 |
| 20260509223030 | 27 | 158 | 0.0 | 0.0 | 0.00 | 0.00 | 0.00 | 29 | 1008.3 |
| 20260509221529 | 27 | 158 | 0.0 | 3.2 | 0.00 | 0.00 | 0.00 | 29 | 1008.2 |
| 20260509220100 | 27 | 159 | 0.0 | 6.4 | 0.00 | 0.00 | 0.00 | 29 | 1008.2 |
| 20260509214604 | 27 | 158 | 0.0 | 6.4 | 0.00 | 0.00 | 0.00 | 29 | 1008.3 |
| 20260509213055 | 27 | 159 | 0.0 | 4.8 | 0.00 | 0.00 | 0.00 | 28 | 1008.5 |
| 20260509211558 | 27 | 159 | 0.0 | 0.0 | 0.00 | 0.00 | 0.00 | 30 | 1008.5 |
| 20260509210056 | 27 | 158 | 0.0 | 0.0 | 0.00 | 0.00 | 0.00 | 27 | 1008.8 |
| 20260509204551 | 27 | 159 | 0.0 | 1.6 | 0.00 | 0.00 | 0.00 | 28 | 1008.7 |
| 20260509203032 | 27 | 159 | 0.0 | 0.0 | 0.00 | 0.00 | 0.00 | 28 | 1008.9 |
| 20260509201521 | 26 | 159 | 0.0 | 0.0 | 0.00 | 0.00 | 0.00 | 28 | 1008.9 |
| 20260509200103 | 26 | 159 | 0.0 | 0.0 | 0.00 | 0.00 | 0.00 | 29 | 1009.0 |
| 20260509194554 | 27 | 159 | 0.0 | 4.8 | 0.00 | 0.00 | 0.00 | 26 | 1009.0 |
| 20260509193047 | 27 | 159 | 0.0 | 1.6 | 0.00 | 0.00 | 0.00 | 28 | 1009.3 |